DateTimeUTC,F1_A11,F1_S11,BsB_S11,BsG_S11,BsR_S11,BbsB_S11,BbsG_S11,BbsR_S11,BaB_A11,BaG_A11,BaR_A11,Tu_S11,T_S11,Uu_S11,U_S11,P_S11,T1_A11
2021-06-23T13:00:00Z,00040200,20000000,,,,,,,0000.55,-000.07,0000.53,19.9,26.1,01.9,01.3,0677.4,31.2
2021-06-23T13:01:00Z,00040200,20000000,,,,,,,0000.39,0000.63,-000.10,19.9,26.1,01.9,01.3,0677.3,31.1
2021-06-23T13:02:00Z,00040200,20000000,,,,,,,-000.96,-000.97,-000.51,19.9,26.1,02.2,01.5,0677.3,31.1
2021-06-23T13:03:00Z,00040200,60000000,,,,,,,0001.36,0001.05,0000.90,19.9,26.1,02.2,01.5,0677.3,31.1
2021-06-23T13:04:00Z,00040200,40000000,0001.26,0000.95,0000.81,0000.76,0000.46,0000.34,0000.84,0000.85,0000.79,19.9,26.0,02.3,01.6,0678.2,31.1
2021-06-23T13:05:00Z,00040200,00000000,0001.39,0001.11,0000.57,0000.44,0000.24,0000.08,-000.61,-000.71,-000.39,19.9,25.9,02.3,01.6,0678.3,31.1
2021-06-23T13:06:00Z,00040200,00000000,0001.45,0000.92,0000.79,0000.92,0000.25,-000.08,0002.06,0002.18,0001.15,19.9,25.9,02.2,01.5,0678.3,31.1
2021-06-23T13:07:00Z,00040200,00000000,0001.44,0001.04,0000.61,0000.11,0000.33,0000.04,0000.98,0001.04,0000.85,19.9,25.9,02.4,01.7,0678.3,31.1
2021-06-23T13:08:00Z,00040200,00000000,0001.73,0001.14,0000.43,0000.11,0000.30,-000.09,0000.79,0000.64,0000.54,19.9,25.9,02.7,01.9,0678.3,31.1
2021-06-23T13:09:00Z,00040200,00000000,0001.85,0000.94,0000.93,0000.47,0000.11,-000.09,0000.48,0000.30,0000.10,19.9,25.9,02.5,01.8,0678.3,31.1
2021-06-23T13:10:00Z,00040200,00000000,0001.84,0001.07,0000.51,0000.77,0000.39,-000.09,0000.45,0000.61,0000.84,19.9,25.9,02.7,01.9,0678.3,31.2
2021-06-23T13:11:00Z,00040200,00000000,0001.47,0000.82,0000.61,0000.08,0000.54,-000.03,0000.27,0000.40,0000.01,19.9,25.9,02.7,01.9,0678.3,31.2
2021-06-23T13:12:00Z,00040200,00000000,0000.87,0000.93,0000.61,-000.55,0000.21,-000.07,0000.38,0000.10,0000.25,19.9,25.9,02.7,01.9,0678.3,31.2
2021-06-23T13:13:00Z,00040200,00000000,0001.54,0001.09,0000.48,0001.12,0000.40,-000.24,0001.04,0000.73,0000.34,19.9,25.9,02.7,01.9,0678.3,31.1
2021-06-23T13:14:00Z,00040200,00000000,0001.61,0000.88,0000.51,0000.41,0000.21,-000.20,0000.05,0000.59,0000.41,19.9,25.9,02.7,01.9,0678.3,31.2
2021-06-23T13:15:00Z,00040200,00000000,0001.28,0001.00,0000.82,0000.82,0000.33,0000.10,0000.83,0000.25,0000.56,19.9,25.9,02.6,01.8,0678.3,31.2
2021-06-23T13:16:00Z,00040200,00000000,0001.83,0001.11,0001.06,0000.44,0000.10,0000.44,0000.08,0000.35,0000.11,19.9,25.9,02.6,01.8,0678.3,31.2
2021-06-23T13:17:00Z,00040200,00000000,0001.18,0001.23,0000.64,0000.72,0000.03,-000.17,0001.45,0001.24,0000.80,19.9,25.9,02.7,01.9,0678.3,31.2
2021-06-23T13:18:00Z,00040200,00000000,0001.35,0000.87,0000.77,0000.75,0000.31,-000.03,-000.22,-000.11,-000.16,19.9,25.9,02.7,01.9,0678.3,31.2
2021-06-23T13:19:00Z,00040200,00000000,0001.91,0001.23,0000.96,0000.31,0000.34,0000.10,0000.48,0000.25,0000.56,19.9,25.9,02.6,01.8,0678.3,31.2
2021-06-23T13:20:00Z,00040200,00000000,0001.55,0001.03,0000.75,0000.46,0000.43,-000.42,0001.03,0001.11,0000.64,19.9,25.9,02.7,01.8,0678.3,31.2
2021-06-23T13:21:00Z,00040200,00000000,0001.47,0001.21,0000.66,0000.41,0000.24,-000.23,0000.02,0000.25,0000.14,19.9,25.9,02.8,01.9,0678.3,31.2
2021-06-23T13:22:00Z,00040200,00000000,0001.71,0001.11,0000.67,0000.35,0000.20,0000.22,0001.81,0001.38,0001.21,19.9,25.9,02.8,01.9,0678.3,31.2
2021-06-23T13:23:00Z,00040200,00000000,0001.28,0001.19,0000.60,0000.53,0000.35,0000.18,-000.45,-000.06,-000.13,19.9,25.9,02.9,02.0,0678.2,31.2
2021-06-23T13:24:00Z,00040200,00000000,0001.12,0001.19,0000.53,0000.88,0000.49,-000.21,0000.05,0000.11,0000.05,19.9,25.9,02.8,02.0,0678.2,31.2
2021-06-23T13:25:00Z,00040200,00000000,0000.92,0001.26,0000.48,0000.46,0000.32,0000.01,-000.01,-000.37,0000.05,19.9,25.9,02.7,01.9,0678.2,31.2
2021-06-23T13:26:00Z,00040200,00000000,0001.97,0001.28,0000.92,0000.78,0000.34,0000.28,0000.70,0000.56,0000.20,19.9,25.9,02.6,01.8,0678.2,31.2
2021-06-23T13:27:00Z,00040200,00000000,0001.11,0001.18,0000.97,0000.69,0000.20,0000.02,0000.61,0000.96,0000.71,19.9,25.9,02.6,01.8,0678.2,31.2
2021-06-23T13:28:00Z,00040200,00000000,0001.70,0001.06,0000.58,0000.73,0000.53,-000.10,0000.51,0000.57,0000.41,19.9,25.9,02.6,01.8,0678.2,31.2
2021-06-23T13:29:00Z,00040200,00000000,0000.86,0000.81,0000.37,0000.19,0000.56,0000.02,0000.89,0000.38,0000.52,19.9,25.9,02.6,01.8,0678.2,31.2
2021-06-23T13:30:00Z,00040200,00000000,0000.91,0001.19,0000.81,-000.06,0000.22,-000.47,0000.82,0000.93,0000.79,20.0,25.9,02.7,01.8,0678.2,31.2
2021-06-23T13:31:00Z,00040200,00000000,0001.02,0001.02,0000.36,0000.63,0000.16,0000.11,-000.61,-000.79,-000.58,19.9,25.9,02.6,01.8,0678.2,31.2
2021-06-23T13:32:00Z,00040200,00000000,0001.36,0001.25,0000.91,0000.11,0000.42,-000.15,0001.84,0001.36,0001.13,19.9,25.9,02.4,01.7,0678.2,31.2
2021-06-23T13:33:00Z,00040200,00000000,0001.40,0000.93,0000.67,0000.62,0000.19,0000.20,-000.20,-000.10,0000.07,19.9,25.9,02.6,01.8,0678.2,31.2
2021-06-23T13:34:00Z,00040200,00000000,0001.09,0001.06,0000.56,0000.35,0000.20,0000.16,0001.73,0001.82,0001.09,19.9,25.9,02.7,01.9,0678.3,31.1
2021-06-23T13:35:00Z,00040200,00000000,0000.64,0001.30,0000.63,0000.83,0000.09,-000.04,-000.64,-000.67,-000.17,19.9,25.9,02.7,01.9,0678.2,31.1
2021-06-23T13:36:00Z,00040200,00000000,0001.24,0001.52,0000.35,-000.06,0000.02,-000.33,0001.12,0001.17,0000.89,20.0,25.9,02.7,01.9,0678.2,31.2
2021-06-23T13:37:00Z,00040200,00000000,0001.42,0000.94,0000.53,0000.94,0000.47,0000.11,0000.64,0000.50,0000.15,19.9,25.9,02.8,01.9,0678.2,31.2
2021-06-23T13:38:00Z,00040200,00000000,0001.16,0001.28,0000.52,0000.02,0000.57,-000.18,-000.02,-000.17,-000.22,19.9,25.9,02.8,01.9,0678.2,31.2
2021-06-23T13:39:00Z,00040200,00000000,0000.98,0001.04,0000.58,0000.31,0000.20,-000.05,0000.17,0000.60,0000.27,19.9,25.9,02.7,01.9,0678.2,31.2
2021-06-23T13:40:00Z,00040200,00000000,0001.09,0001.46,0000.98,0000.46,0000.13,0000.18,0001.43,0001.12,0001.38,19.9,25.9,02.8,01.9,0678.2,31.2
2021-06-23T13:41:00Z,00040200,00000000,0001.21,0001.08,0000.82,0001.15,0000.27,0000.08,0000.31,-000.04,-000.04,20.0,25.9,02.8,02.0,0678.2,31.2
2021-06-23T13:42:00Z,00040200,00000000,0001.54,0000.97,0000.76,0000.33,0000.07,-000.17,0000.41,0001.37,0000.18,20.0,25.9,02.8,02.0,0678.2,31.2
2021-06-23T13:43:00Z,00040200,00000000,0000.92,0000.84,0000.87,0000.27,0000.20,0000.21,0001.52,0000.72,0001.05,19.9,25.9,02.9,02.0,0678.2,31.2
2021-06-23T13:44:00Z,00040200,00000000,0000.35,0000.85,0000.71,0000.24,0000.38,0000.07,-001.66,-001.36,-000.59,20.0,25.9,02.8,01.9,0678.2,31.2
2021-06-23T13:45:00Z,00040200,00000000,0001.25,0001.08,0000.75,0000.50,0000.24,0000.08,0001.42,0001.11,0000.66,20.0,25.9,02.5,01.7,0678.2,31.2
2021-06-23T13:46:00Z,00040200,00000000,0001.34,0001.15,0000.73,0001.01,0000.34,0000.04,-000.49,-000.12,0000.10,20.0,25.9,02.5,01.8,0678.1,31.2
2021-06-23T13:47:00Z,00040200,00000000,0001.51,0001.09,0000.34,0000.37,-000.07,0000.29,0000.92,0000.93,0000.38,20.0,25.9,02.7,01.9,0678.1,31.2
2021-06-23T13:48:00Z,00040200,00000000,0001.13,0001.56,0000.78,0000.12,0000.24,-000.05,0000.39,0000.27,0000.28,20.0,25.9,02.5,01.7,0678.1,31.2
2021-06-23T13:49:00Z,00040200,00000000,0001.60,0000.74,0000.71,0000.57,0000.48,0000.02,0001.22,0001.36,0000.92,20.0,26.0,02.5,01.7,0678.1,31.2
2021-06-23T13:50:00Z,00040200,00000000,0001.74,0000.64,0000.77,0000.43,0000.50,0000.06,-000.44,-000.96,-000.31,20.0,26.0,02.6,01.8,0678.1,31.2
2021-06-23T13:51:00Z,00040200,00000000,0001.61,0001.28,0000.60,0000.67,0000.12,-000.12,-000.15,0000.29,0000.35,20.0,26.0,02.3,01.6,0678.1,31.2
2021-06-23T13:52:00Z,00040200,00000000,0001.95,0001.08,0000.62,0000.42,0000.30,0000.33,0000.37,0000.28,-000.43,20.0,26.0,02.1,01.5,0678.1,31.2
2021-06-23T13:53:00Z,00040200,00000000,0000.98,0000.79,0001.01,0000.59,0000.23,0000.12,-000.24,-000.00,0000.36,20.0,26.0,02.1,01.5,0678.1,31.2
2021-06-23T13:54:00Z,00040200,00000000,0001.22,0001.07,0000.59,0000.01,0000.06,0000.22,0000.81,0000.53,0000.35,20.0,25.9,02.1,01.4,0678.1,31.2
2021-06-23T13:55:00Z,00040200,00000000,0001.62,0001.06,0000.52,0000.67,0000.11,-000.14,0000.40,0000.60,0000.49,20.0,25.9,02.1,01.5,0678.1,31.2
2021-06-23T13:56:00Z,00040200,00000000,0001.81,0001.03,0000.57,0000.11,0000.31,0000.14,0000.55,0000.76,0000.56,20.0,25.9,02.2,01.5,0678.1,31.2
2021-06-23T13:57:00Z,00040200,40000000,,,,,,,0001.95,0001.21,0000.99,20.0,26.0,01.9,01.3,0678.1,31.2
2021-06-23T13:58:00Z,00040200,60000000,,,,,,,0000.14,0000.14,0000.01,19.8,26.1,02.3,01.6,0677.1,31.2
2021-06-23T13:59:00Z,00140200,20000000,,,,,,,0000.62,0000.53,0000.51,19.8,26.2,02.5,01.7,0677.1,31.2
2021-06-23T13:59:36Z,00140200,20000000,,,,,,,,,,19.8,26.2,02.5,01.7,0677.1,31.2
2021-06-23T13:59:37Z,00140200,20000000,,,,,,,,,,19.8,26.2,02.5,01.7,0677.1,31.2
